Hourly Weather Goiania

Today, 1 December, Tuesday

Time Temperature Precipitation Wind Pressure Humidity
00:00 +23°C° 0 mm 1 mps 698 mmHg 62%
01:00 +23°C° 0 mm 1 mps 698 mmHg 63%
02:00 +22°C° 0 mm 1 mps 697 mmHg 65%
03:00 +22°C° 0 mm 1 mps 697 mmHg 61%
04:00 +22°C° 0 mm 1 mps 697 mmHg 63%
05:00 +22°C° 0 mm 1 mps 697 mmHg 65%
06:00 +21°C° 0 mm 1 mps 697 mmHg 67%
07:00 +24°C° 0 mm 1 mps 698 mmHg 60%
08:00 +27°C° 0 mm 1 mps 699 mmHg 53%
09:00 +30°C° 0 mm 1 mps 701 mmHg 46%
10:00 +32°C° 0 mm 1 mps 700 mmHg 42%
11:00 +34°C° 0 mm 1 mps 700 mmHg 38%
12:00 +35°C° 0 mm 1 mps 700 mmHg 35%
13:00 +34°C° 0 mm 1 mps 699 mmHg 38%
14:00 +33°C° 0 mm 1 mps 698 mmHg 42%
15:00 +32°C° 0 mm 1 mps 698 mmHg 46%
16:00 +31°C° 0 mm 1 mps 697 mmHg 49%
17:00 +30°C° 0 mm 1 mps 697 mmHg 53%
18:00 +29°C° 0 mm 1 mps 696 mmHg 56%
19:00 +28°C° 0 mm 1 mps 696 mmHg 58%
20:00 +26°C° 0 mm 1 mps 697 mmHg 60%
21:00 +25°C° 0 mm 1 mps 697 mmHg 63%
22:00 +25°C° 0 mm 1 mps 697 mmHg 64%
23:00 +24°C° 0 mm 1 mps 697 mmHg 65%

Tomorrow, 2 December, Wednesday

Time Temperature Precipitation Wind Pressure Humidity
00:00 +24°C° 0 mm 1 mps 697 mmHg 67%
01:00 +24°C° 0 mm 1 mps 697 mmHg 68%
02:00 +23°C° 0 mm 1 mps 696 mmHg 69%
03:00 +23°C° 0 mm 1 mps 696 mmHg 70%
04:00 +23°C° 0 mm 1 mps 696 mmHg 71%
05:00 +23°C° 0 mm 1 mps 696 mmHg 72%
06:00 +23°C° 0 mm 1 mps 697 mmHg 73%
07:00 +25°C° 0 mm 1 mps 697 mmHg 66%
08:00 +28°C° 0 mm 1 mps 698 mmHg 59%
09:00 +31°C° 0 mm 1 mps 699 mmHg 51%
10:00 +31°C° 0 mm 1 mps 699 mmHg 48%
11:00 +32°C° 0 mm 1 mps 699 mmHg 44%
12:00 +33°C° 0 mm 1 mps 699 mmHg 41%
13:00 +34°C° 0 mm 2 mps 698 mmHg 44%
14:00 +32°C° 0 mm 2 mps 697 mmHg 46%
15:00 +31°C° 0 mm 2 mps 697 mmHg 49%
16:00 +31°C° 0 mm 2 mps 696 mmHg 52%
17:00 +30°C° 0 mm 2 mps 696 mmHg 55%
18:00 +29°C° 0 mm 1 mps 696 mmHg 58%
19:00 +28°C° 0 mm 1 mps 696 mmHg 60%
20:00 +27°C° 0 mm 1 mps 697 mmHg 61%
21:00 +26°C° 0 mm 1 mps 697 mmHg 63%
22:00 +25°C° 0 mm 1 mps 697 mmHg 64%
23:00 +25°C° 0 mm 1 mps 697 mmHg 65%

Day after tomorrow, 3 December, Thursday

Time Temperature Precipitation Wind Pressure Humidity
00:00 +24°C° 0 mm 1 mps 697 mmHg 67%
01:00 +24°C° 0 mm 1 mps 696 mmHg 67%
02:00 +24°C° 0 mm 1 mps 696 mmHg 68%
03:00 +23°C° 0 mm 1 mps 696 mmHg 68%
04:00 +23°C° 0 mm 1 mps 696 mmHg 69%
05:00 +23°C° 0 mm 1 mps 696 mmHg 71%
06:00 +23°C° 0 mm 1 mps 697 mmHg 72%
07:00 +26°C° 0 mm 1 mps 697 mmHg 63%
08:00 +28°C° 0 mm 2 mps 698 mmHg 55%
09:00 +31°C° 0 mm 3 mps 699 mmHg 46%
10:00 +33°C° 0 mm 3 mps 699 mmHg 43%
11:00 +34°C° 0 mm 3 mps 699 mmHg 40%
12:00 +35°C° 0 mm 4 mps 699 mmHg 37%
13:00 +35°C° 0 mm 3 mps 698 mmHg 37%
14:00 +35°C° 0 mm 3 mps 697 mmHg 38%
15:00 +35°C° 0 mm 3 mps 697 mmHg 39%
16:00 +33°C° 0 mm 3 mps 697 mmHg 44%
17:00 +31°C° 0 mm 2 mps 696 mmHg 48%
18:00 +30°C° 0 mm 2 mps 696 mmHg 52%
19:00 +29°C° 0 mm 2 mps 697 mmHg 54%
20:00 +28°C° 0 mm 2 mps 697 mmHg 56%
21:00 +27°C° 0 mm 1 mps 697 mmHg 58%
22:00 +27°C° 0 mm 1 mps 698 mmHg 57%
23:00 +27°C° 0 mm 1 mps 698 mmHg 56%

4 December, Friday

Time Temperature Precipitation Wind Pressure Humidity
00:00 +26°C° 0 mm 1 mps 698 mmHg 55%
01:00 +26°C° 0 mm 1 mps 697 mmHg 56%
02:00 +25°C° 0 mm 1 mps 697 mmHg 57%
03:00 +24°C° 0 mm 1 mps 697 mmHg 58%
04:00 +24°C° 0 mm 1 mps 697 mmHg 60%
05:00 +22°C° 0 mm 0 mps 697 mmHg 62%
06:00 +22°C° 0 mm 0 mps 697 mmHg 64%
07:00 +24°C° 0 mm 0 mps 698 mmHg 58%
08:00 +29°C° 0 mm 1 mps 699 mmHg 52%
09:00 +31°C° 0 mm 1 mps 700 mmHg 46%
10:00 +33°C° 0 mm 1 mps 700 mmHg 42%
11:00 +35°C° 0 mm 2 mps 700 mmHg 38%
12:00 +36°C° 0 mm 2 mps 700 mmHg 35%
13:00 +36°C° 0 mm 2 mps 699 mmHg 36%
14:00 +34°C° 0 mm 1 mps 698 mmHg 37%
15:00 +34°C° 0 mm 1 mps 698 mmHg 39%
16:00 +33°C° 0 mm 1 mps 697 mmHg 43%
17:00 +32°C° 0 mm 1 mps 697 mmHg 47%
18:00 +31°C° 0 mm 1 mps 697 mmHg 51%
19:00 +30°C° 0 mm 1 mps 697 mmHg 54%
20:00 +28°C° 0 mm 1 mps 697 mmHg 57%
21:00 +25°C° 0 mm 0 mps 698 mmHg 60%
22:00 +26°C° 0.7 mm 1 mps 698 mmHg 66%
23:00 +25°C° 0.7 mm 1 mps 698 mmHg 72%

5 December, Saturday

Time Temperature Precipitation Wind Pressure Humidity
00:00 +24°C° 0.7 mm 1 mps 698 mmHg 78%
01:00 +24°C° 0.4 mm 1 mps 697 mmHg 80%
02:00 +24°C° 0.4 mm 1 mps 697 mmHg 81%
03:00 +24°C° 0.4 mm 2 mps 697 mmHg 82%
04:00 +24°C° 1 mm 2 mps 697 mmHg 84%
05:00 +23°C° 1 mm 2 mps 697 mmHg 86%
06:00 +23°C° 1 mm 2 mps 698 mmHg 89%
07:00 +24°C° 0.5 mm 2 mps 698 mmHg 87%
08:00 +24°C° 0.5 mm 2 mps 699 mmHg 85%
09:00 +25°C° 0.5 mm 2 mps 699 mmHg 83%
10:00 +26°C° 0.1 mm 1 mps 699 mmHg 77%
11:00 +28°C° 0.1 mm 1 mps 699 mmHg 71%
12:00 +27°C° 0.1 mm 0 mps 699 mmHg 66%
13:00 +30°C° 0.4 mm 1 mps 699 mmHg 60%
14:00 +32°C° 0.4 mm 1 mps 698 mmHg 55%
15:00 +33°C° 0.4 mm 1 mps 697 mmHg 49%
16:00 +32°C° 0 mm 1 mps 697 mmHg 54%
17:00 +30°C° 0 mm 2 mps 697 mmHg 59%
18:00 +29°C° 0 mm 2 mps 697 mmHg 64%
19:00 +28°C° 0.5 mm 2 mps 697 mmHg 70%
20:00 +26°C° 0.5 mm 2 mps 697 mmHg 76%
21:00 +25°C° 0.5 mm 2 mps 698 mmHg 81%
22:00 +24°C° 0.4 mm 2 mps 698 mmHg 85%
23:00 +24°C° 0.4 mm 2 mps 698 mmHg 88%

6 December, Sunday

Time Temperature Precipitation Wind Pressure Humidity
00:00 +23°C° 0.4 mm 2 mps 697 mmHg 92%
01:00 +23°C° 0.1 mm 2 mps 697 mmHg 91%
02:00 +23°C° 0.1 mm 1 mps 697 mmHg 90%
03:00 +23°C° 0.1 mm 1 mps 696 mmHg 90%
04:00 +23°C° 0 mm 1 mps 696 mmHg 88%
05:00 +21°C° 0 mm 0 mps 696 mmHg 87%
06:00 +22°C° 0 mm 0 mps 697 mmHg 86%
07:00 +23°C° 0 mm 0 mps 697 mmHg 81%
08:00 +24°C° 0 mm 0 mps 698 mmHg 76%
09:00 +27°C° 0 mm 1 mps 698 mmHg 72%
10:00 +29°C° 0.3 mm 1 mps 698 mmHg 67%
11:00 +30°C° 0.3 mm 1 mps 698 mmHg 62%
12:00 +31°C° 0.3 mm 1 mps 698 mmHg 57%
13:00 +31°C° 0.5 mm 2 mps 697 mmHg 56%
14:00 +32°C° 0.5 mm 2 mps 697 mmHg 55%
15:00 +32°C° 0.5 mm 2 mps 696 mmHg 53%
16:00 +30°C° 1 mm 2 mps 696 mmHg 62%
17:00 +28°C° 1 mm 2 mps 696 mmHg 71%
18:00 +26°C° 1 mm 2 mps 695 mmHg 80%
19:00 +26°C° 0.8 mm 2 mps 696 mmHg 82%
20:00 +25°C° 0.8 mm 1 mps 696 mmHg 84%
21:00 +24°C° 0.8 mm 1 mps 696 mmHg 86%
22:00 +24°C° 0.8 mm 1 mps 697 mmHg 87%
23:00 +24°C° 0.8 mm 1 mps 697 mmHg 88%
Show more

We Need Your Consent

Meteoprog and our Service Providers may store and access personal data such as cookies, device identifiers or other similar technologies on your device and process such data to personalise content and ads, as well as provide social media features and to analyse the traffic.

  • Store and/or access information on your device

    Cookies, device identifiers or other information can be stored or accessed on your device for the purposes indicated above.

  • Personalised ads and content, ad and content measurement, audience insights, and products development

    Ads and content can be personalised based on a profile. More data can be added to better personalise ads and content. Ad and content performance can be measured. Insights about the audience who saw the ads and content can be derived. Such data can be used to develop or improve user’s experience, systems and software.

By clicking ‘I Agree’ you will allow the use of indicated cookies, device identifiers, web beacons or other similar technologies. Your settings can be changed in the browser on your device.

For certain purposes, legitimate interests may be relied on, rather than consent. You can read more about this in our Privacy and Cookie Policy.